Wind_Gust
12 12 13 12 12 12 13 14 13 12 13 12 11 12 10 9 12 8 9 9 11 11 12 14 14 13 10 8 13 16 16 18 17 15 14 16 15 14 14 14 12 13
12 13 14 13 12 12 12 12 13 12 13 13 11 10 10 7 9 8 9 10 12 14 12 12 12 11 11 10 11 13 15 14 15 13 13 11 13 14 12 12 14 16
12 12 13 13 14 12 12 11 11 11 11 13 10 9 9 8 7 7 8 8 10 12 11 11 14 12 11 12 12 13 12 12 15 11 11 12 12 12 11 11 12 15
11 12 13 14 12 13 12 12 11 12 12 12 12 12 9 8 9 7 6 8 9 12 11 10 12 13 12 13 11 13 12 12 11 11 10 10 11 10 9 9 8 11
12 13 12 11 11 11 10 10 12 11 12 12 11 12 12 10 10 9 7 5 6 8 8 7 9 10 10 8 9 12 12 14 13 10 9 9 9 9 8 9 11 17
10 12 13 14 12 10 10 10 10 10 10 9 10 10 9 8 8 8 7 5 4 5 7 8 8 9 10 11 8 6 12 13 13 13 13 12 10 9 8 8 12 16
12 10 11 12 12 12 11 10 9 10 10 9 9 9 8 9 7 9 9 6 5 5 5 5 6 8 6 8 8 5 9 10 11 14 14 13 13 11 7 7 10 16
12 11 12 12 13 12 11 10 12 11 10 9 7 8 8 8 10 9 9 9 5 7 6 7 5 6 7 7 7 9 8 9 8 9 12 11 11 11 10 9 8 18
11 11 12 12 13 12 12 12 11 10 11 10 8 7 9 10 8 11 10 8 8 9 8 6 6 6 5 7 9 8 13 12 12 10 10 10 12 13 12 11 10 10
9 10 10 11 12 11 12 12 12 10 11 9 9 8 10 9 10 12 10 9 8 8 9 8 5 5 6 4 7 8 9 8 9 10 9 10 11 13 14 12 10 12
10 9 10 12 13 12 13 13 11 10 9 9 10 9 9 10 12 10 9 11 10 10 11 13 11 9 8 9 8 5 7 11 14 14 12 10 9 10 12 14 11 10
10 11 12 13 13 12 12 12 11 10 11 9 10 9 10 10 10 11 11 12 12 12 14 15 17 15 12 11 9 9 8 7 7 8 12 13 12 10 11 11 14 13
11 10 11 11 11 11 11 11 10 9 11 12 12 10 10 10 12 11 11 12 14 16 16 17 17 18 18 16 13 11 9 8 8 8 9 7 9 10 8 10 12 14
8 8 10 11 11 11 9 10 8 10 10 10 12 12 12 12 11 12 12 14 16 16 18 18 18 19 16 15 13 13 11 8 7 7 7 7 6 7 9 9 10 11
8 8 8 10 11 10 8 9 11 11 12 13 12 12 11 13 14 15 14 15 17 17 18 17 17 16 15 14 13 13 12 10 10 8 8 8 8 7 6 6 8 9
10 8 11 10 10 10 10 10 11 11 13 12 12 13 13 13 14 14 14 16 16 16 15 15 16 13 17 17 13 12 11 11 10 8 8 7 7 8 7 7 7 8
11 12 12 12 12 8 8 11 11 10 10 11 11 11 12 13 12 14 16 17 17 15 14 14 13 15 15 12 12 14 12 9 9 9 7 7 7 7 7 9 10 10
12 12 11 9 9 10 10 9 9 11 12 11 10 10 10 10 11 13 12 13 14 15 15 13 13 14 13 13 13 12 11 10 8 8 8 7 7 6 7 5 6 8
12 12 10 10 11 10 7 8 10 12 11 10 10 8 7 9 9 10 9 10 11 12 13 13 12 12 15 14 13 12 11 10 8 7 9 7 9 8 6 6 6 7
12 12 12 11 9 9 9 10 9 9 8 7 7 6 6 6 7 9 9 9 10 10 10 13 12 12 15 17 16 17 16 11 8 8 8 8 8 7 6 6 7 8
11 13 13 10 10 10 10 9 7 6 7 4 5 6 6 7 6 7 7 7 7 7 9 10 9 11 11 13 14 16 17 11 8 7 8 8 9 10 11 12 13 17
9 9 10 10 11 11 10 10 10 9 7 5 2 2 4 5 6 5 7 8 8 7 8 7 7 11 12 13 15 17 16 11 8 9 12 16 18 17 17 17 17 18
8 9 10 11 11 11 12 10 8 9 8 8 4 3 5 6 8 6 7 8 9 9 8 8 7 10 13 14 15 17 12 11 10 11 14 17 17 17 19 20 19 18
7 8 8 9 9 10 10 9 7 6 6 8 7 3 6 7 10 6 6 7 8 9 8 7 7 9 12 13 14 17 13 11 11 11 14 15 14 15 19 20 23 29
8 9 10 9 9 8 7 7 8 7 8 6 7 6 7 9 9 9 6 6 6 7 14 13 7 8 12 13 14 16 16 11 13 14 15 14 14 13 13 16 16 20
6 7 8 7 6 6 7 7 6 7 8 5 5 8 7 4 6 10 8 8 7 8 11 12 10 8 12 14 13 15 17 14 12 14 15 14 13 12 12 12 13 13
Wind_Speed
3 3 3 3 3 4 5 5 6 6 6 5 5 6 6 4 5 5 3 3 2 3 1 3 4 2 3 3 5 8 8 8 6 5 7 7 6 7 8 8 8 8
4 4 3 3 4 4 4 3 5 5 6 6 5 4 6 4 4 3 4 3 3 3 2 3 2 2 2 2 4 7 7 5 6 5 6 7 6 6 7 8 9 7
3 4 4 4 4 4 4 4 4 5 5 7 6 4 5 4 4 3 2 2 3 3 2 3 3 3 3 2 2 5 4 6 8 5 4 5 3 5 5 5 5 7
4 3 3 4 4 4 4 4 5 5 5 6 6 5 4 4 5 5 4 3 2 2 2 2 3 4 4 2 1 2 3 2 2 2 1 0 2 4 5 5 5 4
3 3 4 4 4 4 4 3 4 5 5 5 6 7 6 6 6 6 4 3 2 2 2 2 1 3 2 3 2 2 1 1 0 1 2 1 0 2 3 4 4 5
3 3 4 3 4 4 4 4 4 4 4 5 6 5 5 5 4 5 5 3 3 2 2 2 2 1 2 3 1 2 2 3 2 1 1 2 2 2 2 4 4 5
4 4 4 4 4 4 4 4 4 4 4 4 4 5 4 4 4 4 5 4 3 3 3 2 2 2 3 2 2 1 2 2 5 5 5 5 5 5 3 3 4 4
3 3 3 4 5 5 5 5 5 4 4 4 3 4 3 4 4 4 4 5 4 4 4 4 3 1 2 2 3 3 2 1 2 2 5 6 5 6 6 5 5 5
2 3 4 5 5 5 6 6 5 4 4 4 4 4 4 4 5 4 4 4 5 6 5 3 3 3 1 2 3 2 3 3 3 4 3 3 4 5 4 3 5 6
2 3 4 5 5 5 6 6 5 5 4 3 5 5 6 5 5 5 5 5 5 4 6 5 3 3 4 2 2 2 2 2 3 3 3 4 4 4 4 4 3 5
3 3 5 5 6 6 6 6 5 4 4 5 5 5 5 5 5 5 5 5 5 5 6 7 6 5 5 6 5 2 2 3 4 1 3 4 4 4 5 4 4 4
3 4 5 6 6 6 6 5 3 4 5 5 5 4 4 4 5 5 5 6 6 5 5 6 6 6 6 5 5 5 2 1 2 1 2 6 5 3 5 5 5 4
2 3 4 5 5 6 5 2 2 3 4 4 3 4 4 5 5 6 5 5 5 5 6 6 6 6 5 5 5 5 5 4 2 1 3 4 3 5 4 4 4 4
3 3 4 4 5 5 3 2 3 3 3 3 3 4 4 4 4 5 3 4 5 5 5 4 5 5 5 5 5 4 5 4 4 3 2 1 2 2 5 4 4 4
3 3 3 5 6 5 2 2 2 2 2 3 3 3 2 2 3 3 3 5 5 5 6 5 5 5 4 5 5 5 4 4 5 4 4 2 2 2 1 2 4 3
3 4 4 5 5 3 1 2 2 1 2 3 3 2 2 4 5 4 5 4 4 4 4 3 4 3 7 10 7 4 4 3 4 4 4 3 3 2 1 1 1 0
2 4 5 5 4 1 2 1 2 1 3 2 3 3 5 4 4 5 4 4 4 4 4 4 3 3 8 7 8 8 5 3 4 5 4 4 3 2 2 1 0 3
3 3 4 4 3 2 1 2 1 2 2 2 2 3 4 3 4 4 3 2 2 3 3 3 3 6 9 10 9 9 6 4 3 4 4 4 4 3 2 1 2 3
3 3 4 3 3 5 4 2 1 2 2 1 2 2 2 4 2 3 2 1 1 1 2 3 3 7 10 10 10 9 8 5 3 4 4 4 4 4 4 2 1 4
1 2 2 2 3 4 3 2 2 2 2 1 1 2 1 2 3 3 2 2 2 2 2 2 3 6 10 11 11 10 9 4 3 3 4 4 4 4 3 3 4 4
1 1 2 3 2 1 2 3 2 2 2 1 1 3 3 2 3 3 2 2 1 1 2 3 2 6 8 10 11 10 9 4 2 3 1 2 5 5 6 5 6 5
0 0 2 3 2 1 2 2 2 3 3 3 1 1 2 1 2 2 2 2 1 1 3 4 4 9 10 11 11 10 8 3 4 5 6 6 7 6 5 5 5 5
1 1 0 2 1 2 2 3 3 3 3 2 2 1 3 3 3 2 2 1 1 3 3 3 4 7 10 11 11 11 6 5 4 6 7 8 7 5 5 6 5 5
2 0 1 3 2 3 3 3 3 3 3 1 3 2 3 4 4 2 1 1 3 3 2 3 4 6 10 11 11 12 7 5 4 5 7 7 6 6 6 6 9 14
3 3 2 2 3 4 4 4 5 4 4 2 3 1 3 5 3 3 1 3 3 3 6 4 4 6 11 11 11 11 7 4 3 5 6 5 5 6 5 5 6 9
2 3 3 2 3 4 4 4 4 4 5 3 2 1 2 2 0 1 3 4 3 3 3 3 5 5 8 12 11 11 9 5 4 5 6 4 4 5 6 4 5 5
Wind_Direction
319 323 305 318 301 298 310 325 321 319 320 325 330 329 321 315 336 351 342 350 23 11 327 175 176 151 165 182 154 195 200 207 222 209 193 187 195 191 199 192 185 188
323 318 319 327 323 321 317 307 307 311 312 316 317 319 321 326 325 342 356 351 13 35 44 11 38 51 326 219 178 188 204 203 224 221 205 194 196 194 206 198 189 180
322 326 325 324 318 312 319 321 322 316 312 309 307 318 321 322 328 337 347 9 16 23 48 54 50 50 347 304 198 164 190 195 208 229 217 217 193 193 204 191 181 177
315 314 322 319 319 323 325 333 331 327 323 323 321 313 313 320 343 336 340 355 20 16 17 38 34 15 356 339 144 120 132 151 188 141 161 187 210 199 191 186 180 169
300 313 324 319 318 326 331 334 329 327 327 318 322 332 337 345 346 336 328 322 352 14 21 33 97 57 304 328 202 144 89 115 55 89 109 78 281 206 192 174 168 172
323 321 319 314 325 327 325 327 320 321 322 330 328 323 334 339 339 343 336 319 321 348 13 42 52 42 306 15 334 171 172 192 206 186 109 115 336 294 204 187 173 176
328 323 325 320 327 326 318 324 325 321 318 310 320 335 338 342 349 345 349 337 323 329 341 355 40 32 57 61 49 126 193 214 186 196 177 180 172 233 240 200 186 185
334 328 321 330 335 324 326 335 328 318 314 318 328 323 339 344 351 355 360 1 350 329 328 328 339 85 91 84 56 54 26 48 344 263 192 178 170 200 207 198 182 178
332 330 339 331 332 333 337 331 322 325 322 325 334 346 353 357 354 356 360 10 12 0 337 315 308 317 354 72 89 73 78 11 353 315 284 226 189 197 211 208 178 171
1 336 333 334 340 336 329 324 329 338 333 8 28 25 19 5 11 6 6 7 22 15 10 0 331 317 339 30 75 101 83 80 355 346 321 290 237 210 205 211 211 172
16 334 340 339 338 333 330 334 348 4 24 39 34 30 17 15 9 10 11 12 29 37 31 24 17 21 30 6 8 52 134 152 211 245 320 297 276 253 220 208 213 201
41 345 347 336 330 328 334 340 355 40 45 41 37 26 19 15 18 16 27 34 27 27 38 34 28 28 29 15 3 360 2 123 149 139 284 277 243 253 250 227 215 208
2 4 329 332 326 321 327 338 41 52 53 48 37 38 24 25 30 45 42 46 31 32 35 30 30 31 25 12 5 6 354 353 12 183 203 263 252 226 242 264 246 224
320 9 326 324 316 322 327 20 57 48 52 53 51 39 29 31 50 63 56 53 41 37 32 32 30 27 22 9 4 3 355 346 341 338 315 301 278 265 254 236 248 245
304 7 324 328 319 323 324 56 55 48 37 61 58 41 40 37 64 75 68 60 47 36 30 20 19 15 14 357 344 350 356 341 333 325 319 312 305 280 269 296 263 243
333 359 330 311 310 324 12 94 86 62 62 60 72 65 70 58 53 48 54 50 51 43 41 30 23 3 1 351 349 339 333 330 320 312 310 309 304 315 318 154 241 288
5 355 329 328 330 344 99 96 90 87 63 56 75 64 67 72 72 61 51 44 44 46 40 34 11 356 343 332 335 345 339 329 318 307 307 310 318 313 335 309 8 25
22 351 334 341 359 23 57 74 40 50 53 64 78 91 94 95 91 84 75 67 50 47 38 20 10 350 342 341 339 343 338 314 288 297 301 310 308 308 318 60 81 44
25 348 345 344 17 34 5 340 17 42 18 27 84 100 110 113 122 121 130 144 118 87 51 19 356 348 338 331 334 334 327 317 293 297 299 298 304 308 324 306 83 78
17 337 334 332 35 40 345 351 6 340 309 314 118 123 148 140 140 166 186 201 182 131 101 70 20 334 331 333 333 331 321 308 277 282 288 292 297 320 335 28 79 82
89 325 4 323 41 6 348 5 13 317 328 310 167 173 183 193 171 192 208 225 223 110 97 52 10 345 339 343 342 335 326 311 278 292 314 18 42 46 48 58 68 68
224 82 338 325 343 1 352 330 319 335 333 316 266 189 158 180 241 173 214 229 247 85 68 24 354 355 351 349 350 347 349 32 35 58 74 73 60 52 56 53 52 59
280 91 266 304 304 3 329 319 313 296 310 300 297 202 159 185 223 200 195 178 100 97 67 22 356 351 357 356 1 1 15 43 46 72 77 72 60 45 43 51 51 45
280 274 25 266 279 259 259 269 274 280 271 258 249 195 171 196 223 201 202 134 87 85 83 51 4 353 3 0 10 13 19 43 48 72 80 76 70 58 43 39 47 55
247 256 254 351 336 310 308 307 298 284 282 235 257 168 169 203 210 194 117 61 74 94 72 59 14 5 10 7 13 18 25 22 30 82 83 84 86 75 63 55 44 44
261 271 285 293 292 298 307 298 291 303 314 339 327 216 226 214 313 184 99 77 76 73 73 58 43 17 18 18 20 22 19 39 360 70 75 75 75 86 80 60 53 48